| time (UTC) | temp F | wind direction | speed MPH | gust MPH | rain 1hr in | rain 24hr in | rain mn in | humidity % | barometer mb |
| 20260905143100 | 78 | 50 | 1.0 | 6.0 | 0.00 | 0.78 | 0.00 | 33 | 1011.4 |
| 20260905141528 | 78 | 9 | 3.0 | 6.0 | 0.00 | 0.78 | 0.00 | 32 | 1011.4 |
| 20260905140026 | 78 | 265 | 0.0 | 2.0 | 0.00 | 0.78 | 0.00 | 36 | 1011.2 |
| 20260905134521 | 78 | 11 | 0.0 | 1.0 | 0.00 | 0.78 | 0.00 | 33 | 1010.7 |
| 20260905133035 | 78 | 359 | 0.0 | 3.0 | 0.00 | 0.78 | 0.00 | 34 | 1010.7 |
| 20260905131516 | 78 | 6 | 0.0 | 3.0 | 0.00 | 0.78 | 0.00 | 33 | 1010.6 |
| 20260905130015 | 76 | 316 | 0.0 | 2.0 | 0.00 | 0.78 | 0.00 | 35 | 1010.6 |
| 20260905124606 | 74 | 29 | 0.0 | 0.0 | 0.00 | 0.78 | 0.00 | 41 | 1010.7 |
| 20260905123002 | 73 | 30 | 0.0 | 0.0 | 0.00 | 0.78 | 0.00 | 43 | 1010.7 |
| 20260905121603 | 73 | 31 | 0.0 | 2.0 | 0.00 | 0.78 | 0.00 | 42 | 1010.7 |
| 20260905120054 | 72 | 1 | 0.0 | 1.0 | 0.00 | 0.78 | 0.00 | 45 | 1010.5 |
| 20260905114551 | 71 | 1 | 0.0 | 1.0 | 0.00 | 0.78 | 0.00 | 47 | 1010.5 |
| 20260905113051 | 70 | 1 | 0.0 | 0.0 | 0.00 | 0.78 | 0.00 | 49 | 1010.5 |
| 20260905111634 | 69 | 1 | 0.0 | 0.0 | 0.00 | 0.78 | 0.00 | 49 | 1010.5 |
| 20260905110043 | 0 | 0.0 | 0.0 | 0.00 | 0.78 | 0.00 | 1010.6 | ||
| 20260905104537 | 0 | 0.0 | 0.0 | 0.00 | 0.78 | 0.00 | 1009.9 | ||
| 20260905103034 | 0 | 0.0 | 0.0 | 0.00 | 0.78 | 0.00 | 1009.7 | ||
| 20260905101534 | 0 | 0.0 | 0.0 | 0.00 | 0.78 | 0.00 | 1009.5 | ||
| 20260905100022 | 0 | 13 | 0.0 | 2.0 | 0.00 | 0.78 | 0.00 | 1009.4 | |
| 20260905094517 | 69 | 278 | 0.0 | 0.0 | 0.00 | 0.78 | 0.00 | 49 | 1009.4 |
| 20260905093016 | 69 | 277 | 0.0 | 0.0 | 0.00 | 0.78 | 0.00 | 49 | 1009.3 |
| 20260905091516 | 69 | 277 | 0.0 | 0.0 | 0.00 | 0.78 | 0.00 | 49 | 1009.4 |
| 20260905090017 | 70 | 277 | 0.0 | 0.0 | 0.00 | 0.78 | 0.00 | 49 | 1009.4 |
| 20260905084509 | 69 | 277 | 0.0 | 0.0 | 0.00 | 0.78 | 0.00 | 49 | 1009.4 |
| 20260905083008 | 69 | 277 | 0.0 | 0.0 | 0.00 | 0.78 | 0.00 | 48 | 1009.4 |
| 20260905081503 | 70 | 276 | 0.0 | 0.0 | 0.00 | 0.78 | 0.00 | 48 | 1009.6 |
| 20260905080117 | 70 | 276 | 0.0 | 0.0 | 0.00 | 0.78 | 0.00 | 48 | 1009.6 |
| 20260905074557 | 70 | 276 | 0.0 | 1.0 | 0.00 | 0.78 | 0.00 | 48 | 1009.8 |
| 20260905073058 | 70 | 276 | 0.0 | 0.0 | 0.00 | 0.78 | 0.00 | 48 | 1009.8 |
| 20260905071552 | 70 | 276 | 0.0 | 0.0 | 0.00 | 0.78 | 0.00 | 49 | 1009.9 |
| 20260905070049 | 70 | 276 | 0.0 | 0.0 | 0.00 | 0.78 | 0.00 | 48 | 1010.0 |
| 20260905064546 | 70 | 276 | 0.0 | 0.0 | 0.00 | 0.78 | 0.00 | 48 | 1010.1 |
| 20260905063043 | 70 | 276 | 0.0 | 1.0 | 0.00 | 0.78 | 0.00 | 48 | 1010.3 |
| 20260905061538 | 70 | 266 | 0.0 | 1.0 | 0.00 | 0.78 | 0.00 | 49 | 1010.4 |
| 20260905060036 | 70 | 269 | 0.0 | 0.0 | 0.00 | 0.78 | 0.00 | 49 | 1010.8 |
| 20260905054537 | 70 | 269 | 0.0 | 0.0 | 0.00 | 0.79 | 0.00 | 48 | 1010.8 |
| 20260905053030 | 71 | 269 | 0.0 | 0.0 | 0.00 | 0.79 | 0.00 | 48 | 1011.0 |
| 20260905051534 | 71 | 269 | 0.0 | 1.0 | 0.00 | 0.79 | 0.00 | 48 | 1011.2 |
| 20260905050021 | 71 | 269 | 0.0 | 1.0 | 0.00 | 0.79 | 0.00 | 49 | 1011.2 |
| 20260905044520 | 72 | 269 | 0.0 | 0.0 | 0.00 | 0.80 | 0.00 | 49 | 1011.4 |
| 20260905043017 | 71 | 269 | 0.0 | 1.0 | 0.00 | 0.80 | 0.00 | 49 | 1011.5 |
| 20260905041514 | 71 | 262 | 1.0 | 2.0 | 0.00 | 0.80 | 0.00 | 49 | 1011.5 |
| 20260905040011 | 71 | 276 | 0.0 | 1.0 | 0.00 | 0.80 | 0.00 | 48 | 1011.7 |
| 20260905034508 | 71 | 269 | 0.0 | 1.0 | 0.00 | 1.31 | 0.80 | 48 | 1011.9 |
| 20260905033013 | 72 | 274 | 1.0 | 2.0 | 0.00 | 1.31 | 0.80 | 49 | 1012.0 |
| 20260905031615 | 71 | 285 | 0.0 | 3.0 | 0.00 | 1.31 | 0.80 | 49 | 1011.9 |
| 20260905030002 | 71 | 241 | 0.0 | 0.0 | 0.00 | 1.31 | 0.80 | 49 | 1011.8 |
| 20260905024601 | 71 | 228 | 0.0 | 1.0 | 0.00 | 1.31 | 0.80 | 49 | 1011.8 |
| 20260905023124 | 71 | 237 | 0.0 | 2.0 | 0.00 | 1.31 | 0.80 | 49 | 1011.9 |
| 20260905021556 | 71 | 240 | 0.0 | 1.0 | 0.00 | 1.31 | 0.80 | 48 | 1011.6 |
| 20260905020054 | 72 | 199 | 0.0 | 2.0 | 0.00 | 1.31 | 0.80 | 48 | 1011.3 |
| 20260905014655 | 72 | 146 | 0.0 | 2.0 | 0.00 | 1.31 | 0.80 | 48 | 1011.1 |
| 20260905013050 | 72 | 301 | 0.0 | 0.0 | 0.00 | 1.31 | 0.80 | 49 | 1011.1 |
| 20260905011551 | 72 | 302 | 0.0 | 1.0 | 0.00 | 1.31 | 0.80 | 48 | 1010.8 |
| 20260905004545 | 72 | 295 | 1.0 | 5.0 | 0.00 | 1.31 | 0.80 | 48 | 1010.7 |
| 20260905003043 | 72 | 241 | 0.0 | 1.0 | 0.00 | 1.31 | 0.80 | 48 | 1010.7 |
| 20260905001548 | 72 | 152 | 0.0 | 1.0 | 0.00 | 1.31 | 0.80 | 48 | 1010.6 |
| 20260905000038 | 73 | 160 | 0.0 | 2.0 | 0.00 | 1.31 | 0.80 | 48 | 1010.6 |
| 20260904234537 | 73 | 162 | 1.0 | 2.0 | 0.00 | 1.31 | 0.80 | 48 | 1010.7 |
| 20260904233041 | 72 | 223 | 0.0 | 1.0 | 0.00 | 1.31 | 0.80 | 48 | 1010.8 |
| 20260904231539 | 72 | 227 | 0.0 | 2.0 | 0.00 | 1.31 | 0.80 | 48 | 1010.9 |
| 20260904230057 | 72 | 238 | 0.0 | 2.0 | 0.00 | 1.31 | 0.80 | 48 | 1010.8 |
| 20260904224530 | 72 | 240 | 0.0 | 2.0 | 0.00 | 1.31 | 0.80 | 48 | 1010.4 |
| 20260904223028 | 72 | 275 | 0.0 | 0.0 | 0.00 | 1.31 | 0.80 | 48 | 1010.4 |
| 20260904221525 | 72 | 275 | 0.0 | 1.0 | 0.00 | 1.31 | 0.80 | 48 | 1010.5 |
| 20260904220027 | 71 | 257 | 0.0 | 2.0 | 0.00 | 1.31 | 0.80 | 48 | 1011.0 |
| 20260904214522 | 71 | 275 | 2.0 | 5.0 | 0.00 | 1.31 | 0.80 | 48 | 1011.5 |
| 20260904213028 | 71 | 269 | 0.0 | 1.0 | 0.00 | 1.31 | 0.80 | 48 | 1011.3 |
| 20260904211517 | 70 | 296 | 0.0 | 1.0 | 0.12 | 1.31 | 0.80 | 48 | 1011.3 |
| 20260904210016 | 70 | 346 | 0.0 | 4.0 | 0.78 | 1.31 | 0.80 | 47 | 1011.3 |
| 20260904204525 | 69 | 354 | 2.0 | 7.0 | 0.78 | 1.31 | 0.80 | 44 | 1011.5 |
| 20260904203017 | 69 | 37 | 0.0 | 3.0 | 0.78 | 1.31 | 0.80 | 48 | 1011.2 |
| 20260904201510 | 71 | 251 | 13.0 | 32.0 | 0.62 | 1.14 | 0.64 | 62 | 1012.8 |
| 20260904200005 | 86 | 286 | 2.0 | 3.0 | 0.00 | 0.53 | 0.02 | 55 | 1011.8 |
| 20260904194503 | 89 | 251 | 2.0 | 4.0 | 0.00 | 0.53 | 0.02 | 50 | 1010.7 |
| 20260904193001 | 89 | 257 | 2.0 | 6.0 | 0.00 | 0.53 | 0.02 | 49 | 1010.9 |
| 20260904191600 | 90 | 278 | 2.0 | 6.0 | 0.00 | 0.53 | 0.02 | 48 | 1010.9 |
| 20260904190100 | 92 | 285 | 1.0 | 5.0 | 0.00 | 0.53 | 0.02 | 44 | 1010.9 |
| 20260904184559 | 92 | 212 | 2.0 | 5.0 | 0.00 | 0.53 | 0.02 | 45 | 1011.2 |
| 20260904183113 | 91 | 217 | 1.0 | 6.0 | 0.00 | 0.53 | 0.02 | 47 | 1011.6 |
| 20260904181554 | 90 | 261 | 3.0 | 6.0 | 0.00 | 0.53 | 0.02 | 47 | 1011.8 |
| 20260904180058 | 90 | 285 | 1.0 | 7.0 | 0.00 | 0.53 | 0.02 | 45 | 1012.0 |
| 20260904174552 | 90 | 328 | 3.0 | 6.0 | 0.00 | 0.53 | 0.02 | 46 | 1012.3 |
| 20260904173056 | 90 | 37 | 2.0 | 6.0 | 0.00 | 0.53 | 0.02 | 45 | 1012.3 |
| 20260904171607 | 89 | 13 | 3.0 | 7.0 | 0.00 | 0.53 | 0.02 | 47 | 1012.2 |
| 20260904170047 | 89 | 293 | 1.0 | 7.0 | 0.00 | 0.53 | 0.02 | 47 | 1012.6 |
| 20260904164554 | 89 | 25 | 3.0 | 9.0 | 0.00 | 0.53 | 0.02 | 47 | 1012.7 |
| 20260904163043 | 88 | 329 | 2.0 | 5.0 | 0.00 | 0.53 | 0.02 | 46 | 1012.8 |
| 20260904161546 | 87 | 32 | 3.0 | 9.0 | 0.00 | 0.53 | 0.02 | 48 | 1012.8 |
| 20260904160038 | 87 | 31 | 4.0 | 12.0 | 0.00 | 0.53 | 0.02 | 47 | 1012.9 |
| 20260904154535 | 86 | 12 | 4.0 | 9.0 | 0.00 | 0.53 | 0.02 | 48 | 1013.0 |
| 20260904153048 | 86 | 41 | 5.0 | 10.0 | 0.00 | 0.53 | 0.02 | 47 | 1013.0 |
| 20260904151526 | 86 | 25 | 3.0 | 8.0 | 0.00 | 0.53 | 0.02 | 48 | 1012.9 |
| 20260904150033 | 86 | 54 | 2.0 | 9.0 | 0.00 | 0.53 | 0.02 | 30 | 1013.0 |
| 20260904144519 | 84 | 329 | 1.0 | 5.0 | 0.00 | 0.53 | 0.02 | 26 | 1013.1 |